Sabadell Airport

Jump to: basic info | weather | runways | comments

Related pages: nearby airports | nearby navaids | notams | map

Basic information (top)

Codes: QSA LELL
Location: lon 41.520901, lat 2.105080, elev 485 ft / 148 m msl
Status: small_airport

Weather (top)

Current conditions (rec'd 2014/10/01 16:00Z):

LELL 011600Z 12007KT 9999 FEW035 24/18 Q1024

Airport forecast (rec'd 2014/10/01 15:00Z):

TAF LELL 011400Z 0115/0215 VRB03KT 9999 FEW030 TX25/0212Z TN14/0206Z 
      TEMPO 0115/0118 FEW030CB

Runways (top)

13/31: 2,953 ft (900 m) — surface unknown — not lighted

Latest comments (top)

GA Pilots useful info: Last visit: summer 2014 Fuel: Avgas ... [read]

Great service, easy in & out: Here our expenses for 3 days in ... [read]

great service, great people: So going on a helicopter through spain ... [read]

More... (top)

See also NOTAMs and nearby airports and navaids, or visit the Sabadell Airport page at the main OurAirports website..